Location: Spring Creek
(38.2870°N, 100.2160°W)
Time: 23:46:19
(UTC+00:00)

Cosmos 2297 Rocket - Pass Details

Date: 01 October 2021
Orbit: 841 x 842 km, 71.0° (Epoch: 18 October)

Event Time Altitude Azimuth Distance (km) Brightness Sun altitude
Rises 04:07:05 0° 330° (NNW) 3,402 6.1 -42.1°
Reaches altitude 10° 04:09:37 10° 325° (NW) 2,464 5.2 -42.5°
Enters shadow 04:11:01 18° 319° (NW) 1,975 4.6 -42.7°
